Погода в Хабоцком

Россия / Тверская область     58°07′58″N   37°01′34″E
темп.,
°C
ветер,
м/с
пор.,
м/с
влажн.,
%
обл.,
%
осадки,
мм/ч
давл.,
гПа
погр.,
м
15 мая, сб
сб1500:00+12вюв3892100 0.0 1012149
03:00+11юв2697100 0.0 1011112
06:00+13в389543 0.0 1010251
09:00+18в467971 0.3 1008589
12:00+21ююв577089 0.5 10071144
15:00+22ю466744 2.8 10051256
18:00+19ю3672100 2.2 1004261
21:00+15ююз4128624 4.9 1005269
16 мая, вс
вс1600:00+12ю411955 0.4 1006288
03:00+11ю411965 0.4 1006296
06:00+12ююз411947 0.0 1007406
09:00+16ююз597621 0.0 1008732
12:00+19ююз576594 0.4 10081456
15:00+17юз587580 1.3 1009987
18:00+18зюз477631 1.2 1010799
21:00+14зюз249172 1.3 101174
17 мая, пн
пн1700:00+12з119432 0.0 101310
03:00+12ююз119483 0.0 101410
06:00+13ю1291100 0.0 101572
09:00+18ююв3474100 0.0 1015551
12:00+21ю3460100 0.0 10151132
15:00+22ююв355499 0.0 10141622
18:00+21юв366270 0.0 10131065
21:00+16вюв4118398 0.0 1012273
18 мая, вт
вт1800:00+16вюв5148594 0.3 1011354
03:00+15вюв4129293 0.3 1010261
06:00+16юв51386100 0.0 1009337
09:00+20юв61466100 0.0 1008575
12:00+24юв61352100 0.0 10071058
15:00+26юв7144946 0.0 10062094
18:00+24юв7145054 0.0 10051397
21:00+20юв7165717 0.0 1005804
19 мая, ср
ср1900:00+18ююв6156923 0.0 1004720
03:00+16ююв5128619 0.0 1005481
06:00+16ююв4108945 0.0 1004461
09:00+20ююв5969100 0.0 1004944
12:00+22ююв6960100 0.0 10031467
15:00+19ююв81865100 1.4 10022166
18:00+20юв9185699 0.0 9991824
21:00+14ююв6138070 0.0 9981055